Location: Bucaritos
(10.0779°N, 67.0369°W)
Time: 06:04:16
(UTC+00:00)

HJ-1C - Pass Details

Date: 27 June 2022
Orbit: 399 x 408 km, 97.1° (Epoch: 18 August)

Event Time Altitude Azimuth Distance (km) Brightness Sun altitude
Exits shadow 23:12:23 - 148° (SSE) 2,117 6.3 -5.3°
Reaches altitude 10° 23:13:59 10° 138° (SE) 1,492 5.5 -5.6°
Maximum altitude 23:16:44 27° 78° (ENE) 843 4.4 -6.2°
Drops below altitude 10° 23:19:29 10° 18° (NNE) 1,492 6.1 -6.9°
Sets 23:21:39 0° 6° (N) 2,354 7.3 -7.3°
